Location: Ergnies
(50.0854°N, 2.0375°E)
Time: 06:05:59
(UTC+00:00)

Cosmos 1805 Rocket - Pass Details

Date: 14 January 2026
Orbit: 599 x 623 km, 82.5° (Epoch: 10 February)

Event Time Altitude Azimuth Distance (km) Brightness Sun altitude
Rises 05:48:47 0° 193° (SSW) 2,893 7.0 -18.1°
Reaches altitude 10° 05:51:01 10° 195° (SSW) 1,991 6.1 -17.7°
Maximum altitude 05:55:25 75° 280° (W) 650 3.4 -17.0°
Drops below altitude 10° 05:59:52 10° 7° (N) 2,000 6.1 -16.3°
Sets 06:02:07 0° 9° (N) 2,908 7.0 -16.0°
